Location: Borojevi?i
(45.0486°N, 16.2297°E)
Time: 07:41:02
(UTC+00:00)

Meteor 1-18 Rocket - Pass Details

Date: 08 August 2020
Orbit: 836 x 909 km, 81.2° (Epoch: 26 September)

Event Time Altitude Azimuth Distance (km) Brightness Sun altitude
Rises 21:00:16 0° 346° (NNW) 3,427 8.6 -23.3°
Reaches altitude 10° 21:02:43 10° 344° (NNW) 2,479 7.6 -23.5°
Maximum altitude 21:08:16 66° 263° (W) 917 4.4 -24.0°
Enters shadow 21:09:45 47° 203° (SSW) 1,105 4.5 -24.1°
